OPS 4682 DEB, 51500

Orbit data source: Space-Track

OPS 4682 DEB, 51500 is space debris in LEO originally from a launch on Sat, 03 Apr 1965 UTC launched from the Air Force Western Test Range (AFWTR). Debris objects in space refer to the collection of defunct objects orbiting the Earth. Examples of debris include non-operational satellites, rocket bodies, and fragments generated from explosions, collisions, or faulty payload assembly.

Loading next visibility...
Identifier
51500, 1965-027GL
Orbit
LEO
Country
Flag of USUS
Related business
Manufacturer
Unknown
Mission
Spacecraft
Bus & Motor
Unknown
Mass
Unknown
Launch date (UTC)
1965-04-03 (61 years ago)
Launch vehicle
Unknown
Launch site
Air Force Western Test Range (AFWTR)
Object type
Payload
Rocket body
Debris
Shape & HBR
Unknown
Radar Cross Section
Medium (>0.1 m² and <1 m²)

Expand to show TLE details & history
Last TLE update: 2 days ago

TLE from 2 days ago
0 OPS 4682 DEB
1 51500U 65027GL  26205.89834893  .00000300  00000-0  10715-2 0  9997
2 51500  90.2425   7.1538 0030712 171.4731 188.6915 12.93021409417096
Epoch: 2026-07-24T21:33Z
TLE epoch observation values (Epoch: 2026-07-24T21:33:37.347Z)
Latitude
-0.00005°
Longitude
101.12981°
Altitude
1,315.71 km
Speed
7.188 km/s
True Right ascension
00h 28m 36s
True Declination
0° 00' 00"
Sunlit
Object was in daylight at epoch
Visualization orbit readout
Latitude
Unknown
Longitude
Unknown
Altitude
Unknown
Speed
Unknown
Apparent Right ascension
Unknown
Apparent Declination
Unknown
Sunlit
N/A
Visualization observer readout
Local Sidereal Time
20:28:10
Azimuth
Unknown
Elevation
Unknown
Doppler factor
Unknown
Orbital elements
Apogee altitude
1,310.23 km
Perigee altitude
1,263.149 km
Semi-major axis
7,664.826 km
Eccentricity
0.00307
Inclination
90.2425°
RAAN
7.1538°
Arg. of periapsis
171.4731°
True anomaly
188.63852°
Mean anomaly
188.6915°
Eccentric anomaly
188.66499°
Mean motion
3.23437 °/min
Orbital period
111.3 mins
BSTAR
0.0010715
Loading maneuver chart data...
Computing Atmospheric mass density...
Loading historical data...
Loading historical data...
Loading historical data...
Loading historical data...
Loading historical data...
Loading historical data...
Loading historical data...

Documentation

Showing up to 5 results
|